Terminal Aerodrome Forecast
Issued by NWS Sterling, VA

Current Version | Previous Version | Graphics & Text | Print | Product List | Glossary On
Versions: 1 2 3 4 5 6 7 8 9 10 11 12 13 14
689
FTUS41 KLWX 260132 AAA
TAFMRB
TAF AMD
KMRB 260132Z 2602/2624 35006KT 2SM BR OVC006
     FM260600 34005KT 2SM BR OVC003
     FM261500 34004KT P6SM BKN008
     FM261800 VRB03KT P6SM BKN025
     FM262000 VRB03KT P6SM SCT030=

USA.gov is the U.S. government's official web portal to all federal, state and local government web resources and services.